Flag Weather past 2 weeks in Herford, North Rhine-Westphalia, Germany

Now
54 °F

Partly sunny.


Feels Like: 53 °F
Forecast: 52 / 63 °F
Wind: 3 mph from South

Location: Bueckeburg

Current Time: Oct 30, 2014 at 4:37:14 PM

Latest Report: Oct 30, 2014 at 3:20 PM


Visibility: N/A

Pressure: 30.21 "Hg

Humidity: 94%

Dew point: 52 °F

Location of HerfordLocation

Historic Weather in Herford — Graph

°F

Herford temperature yesterday

Maximum temperature yesterday: 48 °F (at 11:20 AM)
Minimum temperature yesterday: 41 °F (at 12:20 AM)
Average temperature yesterday: 46 °F

Past Weeks' High & Low Weather Summary

 TemperatureHumidityPressure
High73 °F (Oct 19, 2:20 PM)100% (Oct 29, 7:20 PM)30.27 "Hg (Oct 29, 7:20 PM)
Low41 °F (Oct 29, 12:20 AM)57% (Oct 19, 3:20 PM)29.42 "Hg (Oct 21, 5:20 PM)
Average54 °F83%30.00 "Hg
* Reported Oct 15 4:20 PM — Oct 30 3:20 PM, Herford, Weather by CustomWeather, © 2014

Note: Actual official high and low records may vary slightly from our data, if they occured in-between our weather recording intervals... More about our weather records

Advertising

Herford weather history for previous 24 hours

 ConditionsComfort  
Time TempWeatherWind HumidityBarometerVisibility
3:20 PM
Oct 30
54 °FPartly sunny.3 mph94%30.21 "HgN/A
2:20 PM54 °FPartly sunny.2 mph88%30.24 "HgN/A
1:20 PM54 °FPartly sunny.5 mph88%30.24 "HgN/A
12:20 PM54 °FPartly sunny.3 mph88%30.24 "HgN/A
11:52 AM54 °FBroken clouds.2 mph88%30.24 "HgN/A
11:20 AM52 °FPartly sunny.3 mph94%30.24 "Hg5 mi
10:54 AM52 °FCloudy.3 mph94%30.24 "Hg4 mi
10:20 AM50 °FFog.1 mph100%30.24 "Hg3 mi
9:20 AM50 °FFog.1 mph100%30.24 "Hg3 mi
8:46 AM50 °FFog.2 mph94%30.21 "Hg2 mi
8:20 AM48 °FFog.2 mph100%30.21 "Hg1 mi
7:20 AM48 °FFog.1 mph100%30.21 "Hg1 mi
7:01 AM48 °FFog.1 mph100%30.21 "Hg1 mi
6:20 AM48 °FFog.2 mph100%30.18 "Hg0 mi
5:20 AM48 °FFog.1 mph100%30.18 "Hg0 mi
4:20 AM48 °FFog.1 mph100%30.18 "Hg0 mi
3:20 AM48 °FFog.1 mph100%30.15 "Hg0 mi
2:20 AM48 °FFog.2 mph100%30.15 "Hg1 mi
1:20 AM48 °FFog.1 mph100%30.15 "Hg1 mi
12:20 AM48 °FFog.1 mph100%30.12 "Hg2 mi
11:20 PM
Oct 29
48 °FFog.No wind100%30.12 "Hg3 mi
10:20 PM48 °FFog.1 mph100%30.12 "Hg2 mi
9:20 PM48 °FFog.2 mph100%30.12 "Hg2 mi
8:46 PM48 °FDrizzle. Fog.1 mph100%30.12 "Hg1 mi
8:20 PM48 °FFog.2 mph100%30.09 "Hg1 mi
7:20 PM48 °FDrizzle. Fog.2 mph100%30.09 "Hg2 mi
6:48 PM48 °FDrizzle. Fog.1 mph94%30.09 "Hg1 mi
6:20 PM48 °FDrizzle. Fog.2 mph94%30.07 "Hg2 mi
5:46 PM48 °FDrizzle. Fog.2 mph94%30.07 "Hg2 mi
5:20 PM48 °FDrizzle. Fog.2 mph94%30.07 "Hg1 mi
4:54 PM48 °FDrizzle. Fog.3 mph94%30.07 "Hg1 mi
4:20 PM48 °FDrizzle. Fog.5 mph94%30.07 "Hg1 mi
Weather by CustomWeather, © 2014

See weather overviewHow to use our weather pages